Weather History for Greenville, ME

Change the Weather History Date:

Wednesday, December 4, 2013

  Actual Average (KMLT) Record (KMLT)
Temperature  
Mean Temperature 30 °F 27 °F  
Max Temperature 33 °F 34 °F 57 °F (1950)
Min Temperature 27 °F 20 °F -18 °F (1940)
Degree Days  
Heating Degree Days 34 38  
Month to date heating degree days 149  
Since 1 July heating degree days 1992  
Cooling Degree Days 0 0  
Month to date cooling degree days 0  
Year to date cooling degree days 268  
Moisture  
Dew Point 24 °F    
Average Humidity 80    
Maximum Humidity 85    
Minimum Humidity 75    
Precipitation  
Precipitation 0.00 in 0.16 in 1.40 in (1986)
Month to date precipitation 0.59  
Year to date precipitation 39.74  
Sea Level Pressure  
Sea Level Pressure 30.00 in    
Wind  
Wind Speed 14 mph (NW)    
Max Wind Speed 21 mph    
Max Gust Speed 33 mph    
T = Trace of Precipitation, MM = Missing Value Source: NWS Daily Summary

Daily Weather History Graph

Daily Weather History Graph

Search for Another Location

Airport:

Trip Planner

Search our weather history database for the weather conditions in past years. The results will help you decide how hot, cold, wet, or windy it might be!

Date:

Astronomy

Dec. 04, 2013 Rise Set
Actual Time 7:01 AM EST 3:55 PM EST
Civil Twilight 6:27 AM EST 4:29 PM EST
Nautical Twilight 5:50 AM EST 5:06 PM EST
Astronomical Twilight 5:14 AM EST 5:42 PM EST
Moon 8:24 AM EST (12/4) 6:04 PM EST (12/4)
Length of Visible Light 10h 01m
Length of Day
8h 54m
Waxing Crescent, 4% of the Moon is Illuminated
Dec 4
Waxing Crescent
Dec 9
First Quarter
Dec 17
Full
Dec 25
Last Quarter
Jan 1
New

Hourly Weather History & Observations

Time (EST) Temp. Windchill Dew Point Humidity Pressure Visibility Wind Dir Wind Speed Gust Speed Precip Events Conditions
12:56 AM 28.0 °F 16.1 °F 24.1 °F 85% 29.86 in - NNW 16.1 mph 28.8 mph N/A   Unknown
1:56 AM 28.0 °F 16.1 °F 24.1 °F 85% 29.86 in - NNW 16.1 mph 28.8 mph N/A   Unknown
2:56 AM 28.0 °F 16.1 °F 24.1 °F 85% 29.86 in - NW 16.1 mph 24.2 mph N/A   Unknown
3:56 AM 28.0 °F 14.6 °F 23.0 °F 81% 29.86 in - NW 20.7 mph 33.4 mph N/A   Unknown
4:56 AM 28.9 °F 16.5 °F 24.1 °F 82% 29.87 in - NW 18.4 mph 28.8 mph N/A   Unknown
5:56 AM 28.9 °F 17.7 °F 24.1 °F 82% 29.88 in - NW 15.0 mph 28.8 mph N/A   Unknown
6:56 AM 28.9 °F 18.2 °F 24.1 °F 82% 29.91 in - NW 13.8 mph 23.0 mph N/A   Unknown
7:56 AM 30.0 °F 21.1 °F 25.0 °F 82% 29.93 in - NW 10.4 mph 26.5 mph N/A   Unknown
8:56 AM 30.0 °F 17.9 °F 24.1 °F 79% 29.94 in - NW 18.4 mph 29.9 mph N/A   Unknown
9:56 AM 30.9 °F 22.2 °F 24.1 °F 76% 29.98 in - NW 10.4 mph 25.3 mph N/A   Unknown
10:56 AM 32.0 °F 23.6 °F 25.0 °F 75% 29.97 in - NW 10.4 mph 20.7 mph N/A   Unknown
11:56 AM 33.1 °F 24.9 °F 26.1 °F 75% 29.97 in - NW 10.4 mph 17.3 mph N/A   Unknown
12:56 PM 32.0 °F 24.2 °F 25.0 °F 75% 29.99 in - NW 9.2 mph 23.0 mph N/A   Unknown
1:56 PM 32.0 °F 25.6 °F 25.0 °F 75% 30.01 in - Variable 6.9 mph - N/A   Unknown
2:56 PM 30.9 °F 23.5 °F 24.1 °F 76% 30.02 in - NW 8.1 mph - N/A   Unknown
3:56 PM 30.0 °F 23.2 °F 24.1 °F 79% 30.04 in - NW 6.9 mph 18.4 mph N/A   Unknown
4:56 PM 28.9 °F 21.1 °F 24.1 °F 82% 30.07 in - WNW 8.1 mph - N/A   Unknown
5:56 PM 28.9 °F 20.4 °F 24.1 °F 82% 30.09 in - NW 9.2 mph - N/A   Unknown
6:56 PM 28.0 °F 19.3 °F 23.0 °F 81% 30.12 in - North 9.2 mph - N/A   Unknown
7:56 PM 28.0 °F 17.0 °F 23.0 °F 81% 30.14 in - NNW 13.8 mph - N/A   Unknown
8:56 PM 28.0 °F 17.5 °F 23.0 °F 81% 30.16 in - NNW 12.7 mph 18.4 mph N/A   Unknown
9:56 PM 28.0 °F 17.0 °F 23.0 °F 81% 30.17 in - NNW 13.8 mph - N/A   Unknown
10:56 PM 28.0 °F 18.6 °F 23.0 °F 81% 30.17 in - NNW 10.4 mph - N/A   Unknown
11:56 PM 27.0 °F 20.5 °F 23.0 °F 85% 30.17 in - NNW 5.8 mph - N/A   Unknown